[[{"header":{"parameterUnit":"m.s-1","parameterCategory":1,"la1":30.2991,"la2":30.254,"lo1":-89.0895,"lo2":-89.0444,"dy":0.0017,"dx":0.0017,"nx":28,"ny":28,"refTime":"2025-08-30T09:00:00:Z","depth":0,"parameterNumber":2,"parameterNumberName":"U-component_of_WINDS"},"data":[0,0,0,0,0,0,0,0,0,0,0,0,0,0,0,0,0,0,0,0,0,0,0,0,0,0,0,0,0,0,0,0,0,0,0,0,0,0,0,0,0,0,0,0,0,0,0,0,0,0,0,0,0,0,0,0,0,0,-4.9813,-4.9813,0,-4.9824,-4.9824,-4.9825,-4.9685,-4.9681,-4.9677,-4.9673,-4.9687,-4.969,-4.9694,0,0,0,0,0,0,0,0,0,0,0,0,0,-4.9669,-4.9672,-4.9812,-4.9813,-4.9813,-4.9824,-4.9824,-4.9825,-4.9685,-4.9681,-4.9676,-4.9672,-4.9685,-4.969,-4.9695,0,0,0,0,0,0,0,0,0,0,0,0,0,-4.9711,-4.9673,-4.9812,-4.9745,-4.9739,-4.9824,-4.9824,-4.9825,-4.9686,-4.9681,-4.9675,-4.967,-4.9684,-4.9689,-4.9695,-4.9847,0,0,-4.9713,-4.9716,0,0,0,0,0,0,0,0,-4.9709,-4.9716,-4.9755,-4.975,-4.9743,-4.9747,-4.9778,-4.9832,-4.9688,-4.9706,-4.9673,-4.9667,-4.9711,-4.9715,-4.9729,-4.9847,-4.9848,-4.9714,-4.9717,-4.972,-4.9721,0,0,0,0,0,0,0,-4.9706,-4.9715,-4.9817,-4.9755,-4.9748,-4.9713,-4.9713,-4.9788,-4.9741,-4.9704,-4.9694,-4.9697,-4.9707,-4.9724,-4.9729,-4.9848,-4.9714,-4.9719,-4.9722,-4.9725,-5.0088,-5.0093,0,0,0,0,0,0,-4.9712,-4.9714,-4.9817,-4.9817,-4.9711,-4.9721,-4.972,-4.9752,-4.974,-4.9732,-4.9702,-4.9691,-4.9717,-4.9722,-4.9729,-4.9903,-4.972,-4.9725,-4.9729,-5.0082,-5.0089,-5.0096,0,0,0,0,0,0,-4.971,-4.9723,-4.9816,-4.9763,-4.9772,-4.9729,-4.9766,-4.9755,-4.9772,-4.9738,-4.9729,-4.9728,-4.9713,-4.972,-4.9818,-4.9902,-4.9728,-4.9733,-5.0074,-5.0084,-5.0092,-5.0255,0,0,0,0,0,0,-4.9706,-4.9723,-4.978,-4.9765,-4.9775,-4.9906,-4.9771,-4.9759,-4.9782,-4.9767,-4.976,-4.9754,-4.9709,-4.981,-4.9824,-4.9907,-4.9738,-5.0067,-5.0079,-5.0089,-5.0242,-5.0268,-5.0291,0,0,0,0,0,-4.9702,-4.9826,-4.9784,-4.9797,-4.9846,-4.9911,-4.9917,-4.9862,-4.979,-4.9846,-4.9825,-4.9754,-4.9891,-4.9821,-4.9835,-4.9921,-5.0061,-5.0075,-5.0088,-5.023,-5.0263,-5.029,0,0,0,0,0,0,-4.9853,-4.9823,-4.9776,-4.9899,-4.9909,-4.9887,-4.9957,-4.9899,-4.9929,-4.9914,-4.9845,-4.9845,-4.9953,-4.9947,-4.987,-5.0066,-4.9963,-4.998,-5.0066,-5.0096,-5.0121,-5.0119,-4.9743,0,0,0,0,0,-4.9901,-4.9956,-4.9926,-5.0038,-5.0045,-5.0001,-5.0027,-4.9984,-4.9991,-4.9995,-4.998,-4.999,-5.0034,-5.0065,-5.0105,-5.024,-5.0236,-5.0306,-5.0331,-5.0352,-5.0367,-5.0436,-5.0467,-5.0141,-5.0141,-5.014,0,0,-5.0,-4.999,-5.0029,-5.0068,-5.007,-5.0128,-5.0005,-5.0072,-5.0114,-5.0005,-5.0095,-5.0085,-5.0091,-5.0207,-5.0258,-5.0205,-5.0456,-5.0369,-5.0386,-5.039,-5.0454,-5.0484,-5.0512,-5.015,-5.0148,-5.0147,0,0,-5.021,-5.0209,-5.03,-5.0305,-5.0309,-5.0279,-5.0301,-5.0288,-5.0277,-5.0366,-5.0285,-5.0334,-5.0413,-5.042,-5.0434,-5.0645,-5.058,-5.066,-5.0789,-5.0857,-5.0882,-5.0905,-5.0978,-5.1006,-5.0675,-5.0676,-5.0676,0,-5.0332,-5.0416,-5.0355,-5.0427,-5.0446,-5.0349,-5.044,-5.0448,-5.0466,-5.0481,-5.0422,-5.0517,-5.0515,-5.063,-5.0682,-5.0697,-5.0719,-5.066,-5.0884,-5.0906,-5.0926,-5.0995,-5.1023,-5.0685,-5.0684,-5.0683,-5.0682,0,-5.0566,-5.0625,-5.0699,-5.0717,-5.0744,-5.0826,-5.0777,-5.0812,-5.0766,-5.0742,-5.0833,-5.0827,-5.0862,-5.0887,-5.0844,-5.0996,-5.0963,-5.0896,-5.079,-5.0967,-5.1031,-5.1057,-5.0699,-5.0696,-5.0693,-5.069,0,0,-5.0872,-5.0854,-5.0882,-5.0888,-5.0885,-5.0929,-5.1006,-5.104,-5.107,-5.1086,-5.1148,-5.1216,-5.1153,-5.1169,-5.1125,-5.1186,-5.1351,-5.111,-5.1109,-5.1153,-5.1517,-5.1566,-5.1598,-5.1309,-5.1313,-5.1317,-5.1515,0,-5.1074,-5.1203,-5.115,-5.1284,-5.1337,-5.1245,-5.1312,-5.1317,-5.1296,-5.1338,-5.1315,-5.1364,-5.1277,-5.1286,-5.1341,-5.1319,-5.1423,-5.1304,-5.1364,-5.1367,-5.1364,-5.1632,-5.1685,-5.1873,-5.154,-5.1544,-5.1547,0,-5.1328,-5.1352,-5.1491,-5.1477,-5.1497,-5.1558,-5.1583,-5.1625,-5.1629,-5.1609,-5.1627,-5.157,-5.1643,-5.154,-5.1639,-5.156,-5.1581,-5.1574,-5.158,-5.1582,-5.1467,-5.164,-5.1931,-5.1959,-5.1586,-5.1583,-5.1581,0,-5.1534,-5.1602,-5.1693,-5.1702,-5.1688,-5.1732,-5.1729,-5.1727,-5.175,-5.1773,-5.1787,-5.1819,-5.1836,-5.1862,-5.1814,-5.1743,-5.192,-5.1813,-5.1905,-5.1906,-5.1945,-5.1943,-5.2242,-5.1963,-5.1962,-5.1962,-5.1961,0,-5.1765,-5.1854,-5.1785,-5.1842,-5.1937,-5.1875,-5.1972,-5.1958,-5.1957,-5.2008,-5.1931,-5.1981,-5.1916,-5.196,-5.1924,-5.2011,-5.202,-5.2005,-5.1994,-5.2011,-5.2013,-5.2023,-5.2008,-5.1969,-5.1967,-5.1966,-5.1965,0,-5.2012,-5.197,-5.2063,-5.2042,-5.2038,-5.211,-5.2091,-5.2142,-5.2115,-5.2181,-5.2193,-5.2152,-5.2199,-5.2154,-5.22,-5.2175,-5.2291,-5.2262,-5.229,-5.2281,-5.2375,-5.2366,-5.269,-5.2728,-5.2426,-5.2429,-5.2431,0,-5.2161,-5.2226,-5.2212,-5.224,-5.2241,-5.2288,-5.2311,-5.2252,-5.2279,-5.2287,-5.2337,-5.2377,-5.2406,-5.2486,-5.246,-5.2493,-5.2464,-5.2575,-5.2468,-5.2483,-5.2463,-5.2459,-5.2464,-5.2596,-5.26,-5.2603,-5.2605,0,-5.243,-5.2405,-5.244,-5.2469,-5.2498,-5.2517,-5.2531,-5.2559,-5.2498,-5.2532,-5.2579,-5.2601,-5.2646,-5.2687,-5.2713,-5.2708,-5.2647,-5.2639,-5.2662,-5.2679,-5.2691,-5.2684,-5.2347,-5.2632,-5.2629,-5.2627,-5.2626,-5.2624,-5.263,-5.2683,-5.2681,-5.2722,-5.2726,-5.274,-5.2786,-5.2765,-5.2802,-5.2834,-5.2797,-5.2854,-5.2854,-5.2882,-5.2885,-5.2928,-5.2882,-5.2915,-5.2923,-5.2932,-5.2945,-5.2686,-5.2933,-5.2932,-5.2932,-5.2931,-5.293,0,-5.2893,-5.2886,-5.2925,-5.2946,-5.2978,-5.2917,-5.2929,-5.296,-5.301,-5.3016,-5.3046,-5.3099,-5.3137,-5.3114,-5.3147,-5.3186,-5.3159,-5.3197,-5.3192,-5.3192,-5.2986,-5.2962,-5.3218,-5.3218,-5.3218,-5.3218,-5.3218,-5.3218,-5.3033,-5.3119,-5.3094,-5.3181,-5.3173,-5.3227,-5.3239,-5.3251,-5.3255,-5.3317,-5.3349,-5.3333,-5.3326,-5.3358,-5.3391,-5.3383,-5.3398,-5.3446,-5.3428,-5.3235,-5.3207,-5.318,-5.3157,-5.345,-5.3451,-5.363,-5.3632,-5.3633]},{"header":{"parameterUnit":"m.s-1","parameterCategory":1,"la1":30.2991,"la2":30.254,"lo1":-89.0895,"lo2":-89.0444,"dy":0.0017,"dx":0.0017,"nx":28,"ny":28,"refTime":"2025-08-30T09:00:00:Z","depth":0,"parameterNumber":3,"parameterNumberName":"V-component_of_WINDS"},"data":[0,0,0,0,0,0,0,0,0,0,0,0,0,0,0,0,0,0,0,0,0,0,0,0,0,0,0,0,0,0,0,0,0,0,0,0,0,0,0,0,0,0,0,0,0,0,0,0,0,0,0,0,0,0,0,0,0,0,-3.1948,-3.1948,0,-3.1993,-3.1994,-3.1994,-3.1957,-3.1956,-3.1954,-3.1953,-3.1998,-3.2,-3.2003,0,0,0,0,0,0,0,0,0,0,0,0,0,-3.1826,-3.1828,-3.1948,-3.1948,-3.1949,-3.1993,-3.1994,-3.1994,-3.1958,-3.1956,-3.1954,-3.1952,-3.1997,-3.2,-3.2003,0,0,0,0,0,0,0,0,0,0,0,0,0,-3.1876,-3.1829,-3.1948,-3.1936,-3.1935,-3.1993,-3.1994,-3.1995,-3.1958,-3.1956,-3.1953,-3.1951,-3.1996,-3.2,-3.2004,-3.2075,0,0,-3.2016,-3.2017,0,0,0,0,0,0,0,0,-3.1873,-3.188,-3.1937,-3.1937,-3.1936,-3.1967,-3.1967,-3.2022,-3.1959,-3.1949,-3.1953,-3.195,-3.1989,-3.1994,-3.2007,-3.2077,-3.2079,-3.2016,-3.2018,-3.202,-3.2021,0,0,0,0,0,0,0,-3.187,-3.1878,-3.1966,-3.1938,-3.1937,-3.1927,-3.1932,-3.1977,-3.1982,-3.195,-3.1947,-3.1953,-3.1989,-3.2004,-3.2008,-3.208,-3.2016,-3.2019,-3.2022,-3.2023,-3.2207,-3.221,0,0,0,0,0,0,-3.1868,-3.1875,-3.1964,-3.1967,-3.1898,-3.1931,-3.1936,-3.196,-3.1981,-3.1982,-3.1955,-3.1951,-3.1998,-3.2003,-3.201,-3.2093,-3.202,-3.2024,-3.2026,-3.2205,-3.2208,-3.221,0,0,0,0,0,0,-3.1865,-3.1876,-3.1962,-3.1921,-3.1931,-3.1936,-3.1962,-3.1962,-3.1977,-3.1985,-3.1986,-3.197,-3.1996,-3.2004,-3.2058,-3.2094,-3.2026,-3.2029,-3.2202,-3.2206,-3.2209,-3.226,0,0,0,0,0,0,-3.1862,-3.1875,-3.1903,-3.1922,-3.1933,-3.2012,-3.1965,-3.1964,-3.1984,-3.1979,-3.1999,-3.2,-3.1995,-3.2053,-3.2062,-3.2098,-3.2032,-3.2199,-3.2204,-3.2208,-3.2256,-3.2265,-3.2274,0,0,0,0,0,-3.1858,-3.1916,-3.1905,-3.1916,-3.1969,-3.2014,-3.202,-3.2014,-3.1987,-3.2014,-3.2019,-3.2,-3.2088,-3.2059,-3.2069,-3.2106,-3.2196,-3.2202,-3.2208,-3.2251,-3.2264,-3.2274,0,0,0,0,0,0,-3.1902,-3.1919,-3.1906,-3.1973,-3.1992,-3.2008,-3.2042,-3.2027,-3.2054,-3.2049,-3.2039,-3.2044,-3.2101,-3.2109,-3.2076,-3.2175,-3.2138,-3.2146,-3.2168,-3.2179,-3.2188,-3.2184,-3.2036,0,0,0,0,0,-3.192,-3.1956,-3.1968,-3.2025,-3.2036,-3.2037,-3.2057,-3.205,-3.207,-3.2077,-3.2087,-3.2106,-3.2138,-3.2159,-3.2189,-3.2257,-3.2259,-3.2287,-3.2297,-3.2304,-3.2311,-3.2345,-3.2357,-3.2229,-3.2229,-3.2229,0,0,-3.1956,-3.197,-3.1993,-3.2035,-3.2049,-3.2085,-3.2045,-3.2086,-3.2112,-3.2084,-3.2135,-3.2143,-3.2163,-3.2224,-3.2251,-3.2232,-3.2347,-3.2311,-3.2317,-3.232,-3.2352,-3.2364,-3.2375,-3.2233,-3.2232,-3.2231,0,0,-3.2041,-3.2056,-3.2104,-3.2119,-3.2141,-3.2141,-3.2153,-3.217,-3.2174,-3.2226,-3.2205,-3.2235,-3.2292,-3.2306,-3.2321,-3.2409,-3.2391,-3.242,-3.2467,-3.25,-3.251,-3.2519,-3.2549,-3.256,-3.2426,-3.2427,-3.2427,0,-3.2084,-3.2139,-3.2131,-3.2173,-3.219,-3.2167,-3.2214,-3.2229,-3.2259,-3.2272,-3.2251,-3.2319,-3.2331,-3.2394,-3.2415,-3.2429,-3.244,-3.2417,-3.251,-3.2518,-3.2527,-3.2555,-3.2566,-3.243,-3.2429,-3.2429,-3.2429,0,-3.2189,-3.2227,-3.2263,-3.2293,-3.2315,-3.236,-3.2357,-3.238,-3.2371,-3.2373,-3.2425,-3.2438,-3.247,-3.2484,-3.2476,-3.2545,-3.2533,-3.2511,-3.2473,-3.2542,-3.2568,-3.2579,-3.2434,-3.2433,-3.2432,-3.2431,0,0,-3.2303,-3.2327,-3.234,-3.2352,-3.2374,-3.2403,-3.2446,-3.2476,-3.2495,-3.2517,-3.2551,-3.2598,-3.2577,-3.2594,-3.2587,-3.2617,-3.2683,-3.2591,-3.2591,-3.2606,-3.2758,-3.2773,-3.2786,-3.2672,-3.2674,-3.2675,-3.2755,0,-3.2388,-3.2462,-3.2456,-3.2526,-3.256,-3.2536,-3.2573,-3.259,-3.2593,-3.2621,-3.2623,-3.2656,-3.2628,-3.2637,-3.2665,-3.2669,-3.2713,-3.2663,-3.2702,-3.2703,-3.2696,-3.28,-3.2816,-3.2891,-3.2766,-3.2767,-3.2769,0,-3.2496,-3.2521,-3.2595,-3.2609,-3.2623,-3.2656,-3.2682,-3.271,-3.2728,-3.2728,-3.2746,-3.2733,-3.2774,-3.2736,-3.2792,-3.2758,-3.2773,-3.2777,-3.278,-3.2782,-3.2739,-3.2803,-3.2915,-3.2926,-3.2785,-3.2784,-3.2783,0,-3.257,-3.2622,-3.2672,-3.2683,-3.2702,-3.2725,-3.2734,-3.2749,-3.2768,-3.279,-3.2802,-3.2829,-3.2844,-3.2865,-3.2859,-3.2833,-3.2916,-3.2878,-3.2915,-3.2915,-3.2933,-3.2932,-3.3047,-3.2945,-3.2945,-3.2945,-3.2945,0,-3.2664,-3.2709,-3.2705,-3.2735,-3.2785,-3.2776,-3.2825,-3.2831,-3.2844,-3.2874,-3.2856,-3.2885,-3.2877,-3.2904,-3.29,-3.2946,-3.2953,-3.2953,-3.2951,-3.2954,-3.2953,-3.2963,-3.2957,-3.2948,-3.2947,-3.2947,-3.2946,0,-3.2754,-3.2754,-3.2806,-3.2819,-3.2823,-3.2859,-3.2869,-3.2897,-3.2898,-3.2937,-3.2945,-3.2946,-3.2978,-3.2975,-3.3011,-3.3008,-3.3063,-3.3056,-3.3057,-3.3055,-3.3092,-3.3088,-3.3217,-3.3232,-3.3122,-3.3123,-3.3124,0,-3.2814,-3.2848,-3.2864,-3.2883,-3.2893,-3.2925,-3.2942,-3.2935,-3.2954,-3.2976,-3.3001,-3.3031,-3.3054,-3.3106,-3.3109,-3.3136,-3.3128,-3.3171,-3.3132,-3.3132,-3.3126,-3.3123,-3.3126,-3.3178,-3.318,-3.3181,-3.3181,0,-3.2918,-3.2916,-3.2943,-3.2969,-3.2991,-3.3012,-3.3031,-3.3047,-3.3041,-3.3063,-3.3095,-3.3114,-3.3149,-3.3178,-3.3203,-3.3211,-3.3195,-3.3194,-3.3204,-3.3206,-3.3205,-3.3204,-3.3077,-3.3191,-3.319,-3.3189,-3.3189,-3.3188,-3.2994,-3.3022,-3.3037,-3.3068,-3.3081,-3.3098,-3.3124,-3.3128,-3.3155,-3.3183,-3.3177,-3.3212,-3.3227,-3.3259,-3.3269,-3.3296,-3.328,-3.3295,-3.3298,-3.3301,-3.3305,-3.3202,-3.3301,-3.33,-3.33,-3.33,-3.33,0,-3.3096,-3.3104,-3.3132,-3.3158,-3.3181,-3.3164,-3.3183,-3.3204,-3.3235,-3.3251,-3.3274,-3.3309,-3.3337,-3.3343,-3.3369,-3.3389,-3.3382,-3.3396,-3.3394,-3.3395,-3.3318,-3.3307,-3.3401,-3.3401,-3.3401,-3.3401,-3.3401,-3.3401,-3.3151,-3.3198,-3.3197,-3.3248,-3.3256,-3.3291,-3.3303,-3.3318,-3.333,-3.3371,-3.3394,-3.3397,-3.3408,-3.3435,-3.3459,-3.346,-3.3469,-3.3486,-3.3484,-3.3411,-3.3401,-3.3391,-3.338,-3.3489,-3.3489,-3.3558,-3.3559,-3.3559]}]]